Tiempo cada hora Bolshie Stariki

Hoy, 31 Julio, Sábado

Tiempo Temperatura Precipitaciones Viento Presión Humedad
00:00 +17°C° 0 mm 3 mps 741 mmHg 61%
01:00 +18°C° 0 mm 4 mps 741 mmHg 58%
02:00 +18°C° 0 mm 4 mps 741 mmHg 55%
03:00 +16°C° 0.1 mm 5 mps 741 mmHg 60%
04:00 +16°C° 0.1 mm 5 mps 741 mmHg 65%
05:00 +15°C° 0.1 mm 5 mps 741 mmHg 70%
06:00 +16°C° 0 mm 5 mps 741 mmHg 69%
07:00 +17°C° 0 mm 5 mps 741 mmHg 69%
08:00 +17°C° 0 mm 5 mps 741 mmHg 68%
09:00 +19°C° 0 mm 5 mps 742 mmHg 67%
10:00 +20°C° 0 mm 5 mps 742 mmHg 66%
11:00 +21°C° 0 mm 5 mps 742 mmHg 65%
12:00 +21°C° 0.3 mm 5 mps 743 mmHg 69%
13:00 +21°C° 0.3 mm 5 mps 743 mmHg 74%
14:00 +21°C° 0.3 mm 5 mps 743 mmHg 78%
15:00 +21°C° 0.4 mm 4 mps 743 mmHg 78%
16:00 +21°C° 0.4 mm 4 mps 744 mmHg 78%
17:00 +22°C° 0.4 mm 4 mps 744 mmHg 78%
18:00 +20°C° 0.2 mm 3 mps 744 mmHg 82%
19:00 +19°C° 0.2 mm 2 mps 744 mmHg 86%
20:00 +18°C° 0.2 mm 2 mps 744 mmHg 89%
21:00 +18°C° 0 mm 2 mps 744 mmHg 89%
22:00 +17°C° 0 mm 2 mps 744 mmHg 89%
23:00 +18°C° 0 mm 1 mps 745 mmHg 89%

Mañana, 1 Agosto, Domingo

Tiempo Temperatura Precipitaciones Viento Presión Humedad
00:00 +17°C° 0 mm 2 mps 745 mmHg 88%
01:00 +17°C° 0 mm 2 mps 744 mmHg 87%
02:00 +17°C° 0 mm 2 mps 744 mmHg 85%
03:00 +17°C° 0 mm 2 mps 744 mmHg 86%
04:00 +16°C° 0 mm 2 mps 744 mmHg 87%
05:00 +16°C° 0 mm 2 mps 744 mmHg 87%
06:00 +17°C° 0.3 mm 3 mps 744 mmHg 88%
07:00 +19°C° 0.3 mm 3 mps 744 mmHg 88%
08:00 +20°C° 0.3 mm 4 mps 744 mmHg 88%
09:00 +21°C° 0.2 mm 4 mps 744 mmHg 80%
10:00 +22°C° 0.2 mm 4 mps 744 mmHg 72%
11:00 +25°C° 0.2 mm 5 mps 744 mmHg 65%
12:00 +26°C° 0.1 mm 5 mps 744 mmHg 55%
13:00 +27°C° 0.1 mm 5 mps 744 mmHg 45%
14:00 +28°C° 0.1 mm 6 mps 744 mmHg 36%
15:00 +28°C° 0 mm 5 mps 744 mmHg 38%
16:00 +27°C° 0 mm 5 mps 744 mmHg 41%
17:00 +27°C° 0 mm 4 mps 744 mmHg 43%
18:00 +25°C° 0 mm 4 mps 745 mmHg 51%
19:00 +22°C° 0 mm 3 mps 745 mmHg 58%
20:00 +20°C° 0 mm 2 mps 745 mmHg 66%
21:00 +19°C° 0 mm 2 mps 745 mmHg 70%
22:00 +18°C° 0 mm 2 mps 745 mmHg 74%
23:00 +17°C° 0 mm 2 mps 745 mmHg 78%

Pasado mañana, 2 Agosto, Lunes

Tiempo Temperatura Precipitaciones Viento Presión Humedad
00:00 +18°C° 0 mm 1 mps 745 mmHg 79%
01:00 +18°C° 0 mm 1 mps 746 mmHg 80%
02:00 +18°C° 0 mm 1 mps 746 mmHg 81%
03:00 +18°C° 0 mm 1 mps 746 mmHg 82%
04:00 +18°C° 0 mm 1 mps 745 mmHg 84%
05:00 +18°C° 0 mm 1 mps 745 mmHg 86%
06:00 +18°C° 0.2 mm 1 mps 745 mmHg 87%
07:00 +18°C° 0.2 mm 1 mps 745 mmHg 88%
08:00 +16°C° 0.2 mm 0 mps 745 mmHg 89%
09:00 +18°C° 1.6 mm 1 mps 744 mmHg 92%
10:00 +18°C° 1.6 mm 1 mps 744 mmHg 95%
11:00 +16°C° 1.6 mm 1 mps 743 mmHg 98%
12:00 +16°C° 4 mm 1 mps 743 mmHg 98%
13:00 +16°C° 4 mm 1 mps 743 mmHg 98%
14:00 +16°C° 4 mm 1 mps 742 mmHg 98%
15:00 +16°C° 0.9 mm 1 mps 742 mmHg 98%
16:00 +16°C° 0.9 mm 1 mps 742 mmHg 98%
17:00 +16°C° 0.9 mm 2 mps 742 mmHg 98%
18:00 +16°C° 0.1 mm 2 mps 742 mmHg 98%
19:00 +16°C° 0.1 mm 2 mps 742 mmHg 98%
20:00 +16°C° 0.1 mm 2 mps 742 mmHg 97%
21:00 +15°C° 0 mm 2 mps 743 mmHg 97%
22:00 +15°C° 0 mm 2 mps 743 mmHg 97%
23:00 +15°C° 0 mm 2 mps 743 mmHg 97%

3 Agosto, Martes

Tiempo Temperatura Precipitaciones Viento Presión Humedad
00:00 +15°C° 0 mm 2 mps 743 mmHg 97%
01:00 +15°C° 0 mm 2 mps 743 mmHg 97%
02:00 +14°C° 0 mm 2 mps 743 mmHg 97%
03:00 +14°C° 0 mm 2 mps 743 mmHg 97%
04:00 +14°C° 0 mm 2 mps 744 mmHg 97%
05:00 +14°C° 0 mm 2 mps 744 mmHg 96%
06:00 +14°C° 0 mm 3 mps 744 mmHg 92%
07:00 +16°C° 0 mm 3 mps 744 mmHg 88%
08:00 +17°C° 0 mm 4 mps 744 mmHg 84%
09:00 +18°C° 0.1 mm 4 mps 745 mmHg 76%
10:00 +19°C° 0.1 mm 4 mps 745 mmHg 68%
11:00 +20°C° 0.1 mm 4 mps 745 mmHg 59%
12:00 +21°C° 0 mm 4 mps 745 mmHg 57%
13:00 +21°C° 0 mm 4 mps 746 mmHg 54%
14:00 +21°C° 0 mm 3 mps 746 mmHg 52%
15:00 +21°C° 0.1 mm 3 mps 746 mmHg 57%
16:00 +20°C° 0.1 mm 3 mps 746 mmHg 62%
17:00 +20°C° 0.1 mm 3 mps 746 mmHg 67%
18:00 +18°C° 0.1 mm 3 mps 747 mmHg 73%
19:00 +17°C° 0.1 mm 2 mps 747 mmHg 79%
20:00 +15°C° 0.1 mm 2 mps 748 mmHg 86%
21:00 +14°C° 0 mm 2 mps 748 mmHg 87%
22:00 +13°C° 0 mm 2 mps 749 mmHg 87%
23:00 +12°C° 0 mm 2 mps 749 mmHg 88%

4 Agosto, Miércoles

Tiempo Temperatura Precipitaciones Viento Presión Humedad
00:00 +12°C° 0 mm 1 mps 750 mmHg 87%
01:00 +11°C° 0 mm 1 mps 750 mmHg 86%
02:00 +11°C° 0 mm 1 mps 751 mmHg 84%
03:00 +10°C° 0 mm 1 mps 751 mmHg 84%
04:00 +10°C° 0 mm 1 mps 751 mmHg 83%
05:00 +10°C° 0 mm 1 mps 752 mmHg 83%
06:00 +13°C° 0 mm 1 mps 752 mmHg 74%
07:00 +15°C° 0 mm 1 mps 752 mmHg 66%
08:00 +18°C° 0 mm 1 mps 753 mmHg 57%
09:00 +20°C° 0 mm 1 mps 753 mmHg 52%
10:00 +21°C° 0 mm 1 mps 753 mmHg 46%
11:00 +23°C° 0 mm 1 mps 753 mmHg 40%
12:00 +23°C° 0 mm 1 mps 753 mmHg 38%
13:00 +23°C° 0 mm 1 mps 753 mmHg 37%
14:00 +24°C° 0 mm 1 mps 753 mmHg 35%
15:00 +23°C° 0 mm 1 mps 753 mmHg 38%
16:00 +23°C° 0 mm 1 mps 753 mmHg 41%
17:00 +23°C° 0 mm 1 mps 753 mmHg 44%
18:00 +21°C° 0 mm 1 mps 753 mmHg 50%
19:00 +19°C° 0 mm 1 mps 753 mmHg 56%
20:00 +16°C° 0 mm 1 mps 753 mmHg 62%
21:00 +15°C° 0 mm 1 mps 753 mmHg 64%
22:00 +14°C° 0 mm 1 mps 753 mmHg 66%
23:00 +13°C° 0 mm 1 mps 754 mmHg 67%

5 Agosto, Jueves

Tiempo Temperatura Precipitaciones Viento Presión Humedad
00:00 +13°C° 0 mm 1 mps 754 mmHg 69%
01:00 +13°C° 0 mm 1 mps 754 mmHg 70%
02:00 +12°C° 0 mm 1 mps 754 mmHg 72%
03:00 +12°C° 0 mm 1 mps 754 mmHg 72%
04:00 +12°C° 0 mm 1 mps 754 mmHg 72%
05:00 +12°C° 0 mm 2 mps 754 mmHg 72%
06:00 +14°C° 0 mm 2 mps 753 mmHg 66%
07:00 +16°C° 0 mm 2 mps 753 mmHg 60%
08:00 +18°C° 0 mm 3 mps 753 mmHg 54%
09:00 +20°C° 0 mm 3 mps 753 mmHg 49%
10:00 +22°C° 0 mm 3 mps 753 mmHg 44%
11:00 +24°C° 0 mm 3 mps 753 mmHg 40%
12:00 +24°C° 0 mm 3 mps 752 mmHg 40%
13:00 +25°C° 0 mm 3 mps 752 mmHg 41%
14:00 +25°C° 0 mm 3 mps 752 mmHg 42%
15:00 +24°C° 0 mm 3 mps 751 mmHg 44%
16:00 +24°C° 0 mm 3 mps 751 mmHg 46%
17:00 +24°C° 0 mm 3 mps 751 mmHg 49%
18:00 +21°C° 0 mm 3 mps 751 mmHg 53%
19:00 +20°C° 0 mm 3 mps 751 mmHg 58%
20:00 +19°C° 0 mm 3 mps 750 mmHg 62%
21:00 +18°C° 0.1 mm 3 mps 750 mmHg 69%
22:00 +17°C° 0.1 mm 2 mps 751 mmHg 75%
23:00 +16°C° 0.1 mm 2 mps 751 mmHg 81%
Mostrar más